Content
SEND FEEDBACK

Daily
Averages
Monthly
Summary
United States of America

WALNUT GROVE, ALABAMA


Home > North America > United States > Alabama
Elevation: 85 feet     Latitude: 34 04N     Longitude: 086 19W

WEATHER
 
SELECT A DAY
Number of Records: 209,352;   Date Range: 3/15/06 - 9/30/14
 
SHARE

PRINT THIS DATA

[ ← Previous Day ]
WEATHER ALMANAC - APRIL 7, 2014
[ Next Day → ]
[ °C ]   °F
Weather ElementAverageHighLow
Temperature54.4 °F68 °F (2:55 pm)48.2 °F (11:15 pm)
Dewpoint52.9 °F64.4 °F (2:35 pm)44.6 °F (11:55 pm)
Humidity95 %100 % (12:35 am)77 % (4:55 pm)
Barometer29.72 in29.85 in (12:35 am)29.61 in (2:55 pm)
Wind Speed10.4 mph20.7 mph (3:55 pm)
Wind Gust28.8 mph (4:15 pm)
Weather ElementAverage
Visibility8 mi
Wind DirectionS (182.9 °)

Weather ElementTotal
Precipitation2.86 in
Heating Degree Days6.9 (Base 65)
Growing Degree Days8.1 (Base 50)
Averaged from 68 records on April 7, 2014
WEATHER CONDITIONS BREAKOUT
WIND DIRECTION BREAKOUT
WEATHER BY HOUR - APRIL 7, 2014
[ °C ]   °F
Local TimeTemperatureDewpointHumidityBarometerVisibilityWind DirectionWind SpeedGust SpeedPrecipitationEventsConditions
12:35 AM50.0 °F50.0 °F100 %29.85 in2.0 miEast (80°)5.8 mph0.21 inRainHeavy Rain
12:55 AM50.0 °F50.0 °F100 %29.79 in2.5 miEast (80°)9.2 mph0.30 inRainHeavy Rain
1:15 AM50.0 °F50.0 °F100 %29.78 in3.0 miEast (80°)10.4 mph20.7 mph0.07 inRainRain
1:35 AM51.8 °F51.8 °F100 %29.77 in2.5 miEast (100°)9.2 mph19.6 mph0.18 inRainHeavy Rain
1:55 AM50.0 °F50.0 °F100 %29.77 in2.5 miEast (100°)8.1 mph18.4 mph0.32 inRain-ThunderstormHeavy Thunderstorms and Rain
2:15 AM51.8 °F51.8 °F100 %29.75 in5.0 miEast (80°)10.4 mph19.6 mph0.05 inRainRain
2:35 AM51.8 °F51.8 °F100 %29.74 in4.0 miEast (100°)11.5 mph0.10 inRain-ThunderstormRain
2:55 AM51.8 °F51.8 °F100 %29.76 in3.0 miESE (120°)10.4 mph18.4 mph0.22 inRain-ThunderstormHeavy Thunderstorms and Rain
3:15 AM51.8 °F51.8 °F100 %29.74 in3.0 miESE (110°)8.1 mph18.4 mph0.08 inRain-ThunderstormHeavy Thunderstorms and Rain
3:35 AM51.8 °F51.8 °F100 %29.74 in2.0 miENE (70°)8.1 mph18.4 mph0.22 inRainHeavy Rain
3:55 AM51.8 °F51.8 °F100 %29.75 in3.0 miEast (100°)6.9 mph0.32 inRainHeavy Rain
4:15 AM51.8 °F51.8 °F100 %29.76 in2.0 miEast (100°)4.6 mph0.11 inRain-ThunderstormHeavy Thunderstorms and Rain
4:35 AM51.8 °F51.8 °F100 %29.78 in2.5 miEast (80°)4.6 mph0.21 inRainHeavy Rain
4:55 AM51.8 °F51.8 °F100 %29.77 in2.5 miEast (90°)8.1 mph0.32 inRainHeavy Rain
5:15 AM51.8 °F51.8 °F100 %29.70 in5.0 miEast (90°)16.1 mph25.3 mph0.03 inRainRain
5:35 AM51.8 °F51.8 °F100 %29.70 in10.0 miEast (100°)10.4 mph24.2 mph0.04 inRainLight Rain
5:55 AM51.8 °F51.8 °F100 %29.67 in10.0 miEast (100°)11.5 mph18.4 mph0.04 inMostly Cloudy
6:15 AM51.8 °F51.8 °F100 %29.73 in10.0 miSE (130°)11.5 mph17.3 mph0.01 inMostly Cloudy
6:35 AM51.8 °F51.8 °F100 %29.72 in10.0 miESE (120°)11.5 mph18.4 mph0.01 inOvercast
7:15 AM50.0 °F50.0 °F100 %29.70 in10.0 miESE (120°)9.2 mphOvercast
7:35 AM50.0 °F50.0 °F100 %29.70 in10.0 miESE (120°)11.5 mph16.1 mphOvercast
7:55 AM50.0 °F50.0 °F100 %29.71 in10.0 miSE (130°)9.2 mph17.3 mphOvercast
8:15 AM51.8 °F51.8 °F100 %29.70 in10.0 miSE (130°)4.6 mph17.3 mphOvercast
8:35 AM51.8 °F51.8 °F100 %29.68 in10.0 miSE (130°)5.8 mphOvercast
8:55 AM51.8 °F51.8 °F100 %29.66 in10.0 miESE (110°)8.1 mphOvercast
9:15 AM51.8 °F51.8 °F100 %29.66 in10.0 miESE (120°)4.6 mphOvercast
9:35 AM53.6 °F53.6 °F100 %29.65 in10.0 miESE (110°)9.2 mph16.1 mphOvercast
9:55 AM53.6 °F53.6 °F100 %29.66 in10.0 miSE (140°)6.9 mphOvercast
10:15 AM53.6 °F53.6 °F100 %29.65 in10.0 miSE (140°)9.2 mphOvercast
10:55 AM55.4 °F55.4 °F100 %29.64 in10.0 miSE (140°)10.4 mphOvercast
11:15 AM55.4 °F55.4 °F100 %29.65 in10.0 miSE (130°)5.8 mphOvercast
11:35 AM55.4 °F55.4 °F100 %29.65 in4.0 miSE (140°)8.1 mphRainRain
11:55 AM55.4 °F55.4 °F100 %29.65 in5.0 miSSE (150°)6.9 mphRainLight Rain
12:15 PM57.2 °F57.2 °F100 %29.65 in5.0 miSouth (180°)4.6 mphRainLight Rain
12:35 PM57.2 °F57.2 °F100 %29.65 in7.0 miSSE (160°)6.9 mph0.01 inOvercast
12:55 PM59.0 °F59.0 °F100 %29.65 in7.0 miSSE (160°)8.1 mph0.01 inOvercast
1:15 PM59.0 °F59.0 °F100 %29.64 in7.0 miSouth (180°)9.2 mphOvercast
1:35 PM60.8 °F60.8 °F100 %29.64 in7.0 miSouth (170°)8.1 mphOvercast
1:55 PM60.8 °F60.8 °F100 %29.63 in7.0 miSSE (160°)5.8 mphOvercast
2:15 PM62.6 °F62.6 °F100 %29.62 in10.0 miSW (230°)10.4 mph16.1 mphOvercast
2:35 PM64.4 °F64.4 °F100 %29.62 in10.0 miWSW (240°)11.5 mphOvercast
2:55 PM68.0 °F64.4 °F88 %29.61 in10.0 miSW (230°)15.0 mph25.3 mphScattered Clouds
3:15 PM66.2 °F62.6 °F88 %29.61 in10.0 miWest (260°)17.3 mph23.0 mphMostly Cloudy
3:35 PM66.2 °F62.6 °F88 %29.62 in10.0 miWest (260°)17.3 mph25.3 mphMostly Cloudy
3:55 PM64.4 °F60.8 °F88 %29.63 in10.0 miWest (260°)20.7 mph27.6 mphScattered Clouds
4:15 PM62.6 °F59.0 °F88 %29.64 in10.0 miWest (260°)18.4 mph28.8 mphMostly Cloudy
4:35 PM60.8 °F55.4 °F82 %29.66 in10.0 miWest (270°)19.6 mph24.2 mphOvercast
4:55 PM60.8 °F53.6 °F77 %29.67 in10.0 miWest (260°)19.6 mph25.3 mphOvercast
5:15 PM59.0 °F53.6 °F82 %29.68 in10.0 miWest (260°)20.7 mph24.2 mphOvercast
5:35 PM57.2 °F51.8 °F82 %29.70 in10.0 miWSW (250°)16.1 mph20.7 mphOvercast
5:55 PM55.4 °F51.8 °F88 %29.72 in10.0 miWest (260°)10.4 mph19.6 mphOvercast
6:15 PM55.4 °F51.8 °F88 %29.73 in10.0 miWest (260°)13.8 mph20.7 mphOvercast
6:35 PM53.6 °F50.0 °F88 %29.74 in10.0 miWest (260°)15.0 mphOvercast
6:55 PM53.6 °F51.8 °F94 %29.74 in10.0 miWest (260°)9.2 mph13.8 mphOvercast
7:15 PM53.6 °F50.0 °F88 %29.76 in10.0 miWSW (250°)8.1 mphOvercast
7:35 PM53.6 °F50.0 °F88 %29.77 in10.0 miWest (260°)8.1 mphOvercast
7:55 PM53.6 °F50.0 °F88 %29.77 in10.0 miWSW (250°)10.4 mphOvercast
8:15 PM53.6 °F50.0 °F88 %29.79 in10.0 miWest (260°)10.4 mphOvercast
8:35 PM53.6 °F50.0 °F88 %29.80 in10.0 miWest (260°)9.2 mphOvercast
9:15 PM53.6 °F50.0 °F88 %29.82 in10.0 miWest (270°)9.2 mphOvercast
9:35 PM51.8 °F48.2 °F88 %29.83 in10.0 miWNW (300°)15.0 mph18.4 mphOvercast
9:55 PM50.0 °F46.4 °F87 %29.83 in10.0 miNW (310°)11.5 mphOvercast
10:15 PM50.0 °F46.4 °F87 %29.83 in10.0 miNW (310°)11.5 mph20.7 mphOvercast
10:35 PM50.0 °F46.4 °F87 %29.83 in10.0 miNW (310°)10.4 mphOvercast
10:55 PM50.0 °F46.4 °F87 %29.83 in10.0 miWNW (290°)9.2 mphOvercast
11:15 PM48.2 °F46.4 °F93 %29.83 in10.0 miWNW (300°)11.5 mph17.3 mphOvercast
11:35 PM48.2 °F46.4 °F93 %29.83 in10.0 miWNW (300°)10.4 mphOvercast
11:55 PM48.2 °F44.6 °F87 %29.83 in10.0 miWNW (300°)8.1 mph16.1 mphOvercast
Hourly data recorded from K8A0, located miles away from Walnut Grove, Alabama







STORIES FROM OUR PARTNERS